owner,sensor,date,latitude,longitude,air_pressure(mBar),qcFlag 
DISL,ioos:station:DISL:KATA:1,2019-10-01T00:56:00Z,30.2583,-88.2131,1017.271556,11111222 
DISL,ioos:station:DISL:KATA:1,2019-10-01T01:56:00Z,30.2583,-88.2131,1017.610195,11111222 
DISL,ioos:station:DISL:KATA:1,2019-10-01T02:56:00Z,30.2583,-88.2131,1018.287473,11111222 
DISL,ioos:station:DISL:KATA:1,2019-10-01T03:56:00Z,30.2583,-88.2131,1018.287473,11111222 
DISL,ioos:station:DISL:KATA:1,2019-10-01T04:56:00Z,30.2583,-88.2131,1017.948834,11111222 
DISL,ioos:station:DISL:KATA:1,2019-10-01T05:56:00Z,30.2583,-88.2131,1017.271556,11111222 
DISL,ioos:station:DISL:KATA:1,2019-10-01T06:56:00Z,30.2583,-88.2131,1016.932917,11111222 
DISL,ioos:station:DISL:KATA:1,2019-10-01T07:56:00Z,30.2583,-88.2131,1016.932917,11111222 
DISL,ioos:station:DISL:KATA:1,2019-10-01T08:56:00Z,30.2583,-88.2131,1016.932917,11111222 
DISL,ioos:station:DISL:KATA:1,2019-10-01T09:56:00Z,30.2583,-88.2131,1016.932917,11111222 
DISL,ioos:station:DISL:KATA:1,2019-10-01T10:56:00Z,30.2583,-88.2131,1017.271556,11111222 
DISL,ioos:station:DISL:KATA:1,2019-10-01T11:56:00Z,30.2583,-88.2131,1017.948834,11111222 
DISL,ioos:station:DISL:KATA:1,2019-10-01T12:56:00Z,30.2583,-88.2131,1018.287473,11111222 
DISL,ioos:station:DISL:KATA:1,2019-10-01T13:56:00Z,30.2583,-88.2131,1018.964751,11111222 
DISL,ioos:station:DISL:KATA:1,2019-10-01T14:56:00Z,30.2583,-88.2131,1018.964751,11111222 
DISL,ioos:station:DISL:KATA:1,2019-10-01T15:56:00Z,30.2583,-88.2131,1018.287473,11111222 
DISL,ioos:station:DISL:KATA:1,2019-10-01T16:56:00Z,30.2583,-88.2131,1018.287473,11111222 
DISL,ioos:station:DISL:KATA:1,2019-10-01T17:56:00Z,30.2583,-88.2131,1018.287473,11111222 
DISL,ioos:station:DISL:KATA:1,2019-10-01T18:56:00Z,30.2583,-88.2131,1016.932917,11111222 
DISL,ioos:station:DISL:KATA:1,2019-10-01T19:56:00Z,30.2583,-88.2131,1016.255639,11111222 
DISL,ioos:station:DISL:KATA:1,2019-10-01T20:56:00Z,30.2583,-88.2131,1015.578361,11111222 
DISL,ioos:station:DISL:KATA:1,2019-10-01T21:56:00Z,30.2583,-88.2131,1015.917,11111222 
DISL,ioos:station:DISL:KATA:1,2019-10-01T22:56:00Z,30.2583,-88.2131,1015.917,11111222 
DISL,ioos:station:DISL:KATA:1,2019-10-01T23:56:00Z,30.2583,-88.2131,1015.578361,11111222 
DISL,ioos:station:DISL:KATA:1,2019-10-02T00:56:00Z,30.2583,-88.2131,1015.917,11111222 
DISL,ioos:station:DISL:KATA:1,2019-10-02T01:56:00Z,30.2583,-88.2131,1015.578361,11111222 
DISL,ioos:station:DISL:KATA:1,2019-10-02T02:56:00Z,30.2583,-88.2131,1016.255639,11111222 
DISL,ioos:station:DISL:KATA:1,2019-10-02T03:56:00Z,30.2583,-88.2131,1015.917,11111222 
DISL,ioos:station:DISL:KATA:1,2019-10-02T05:57:00Z,30.2583,-88.2131,1015.578361,11111222 
DISL,ioos:station:DISL:KATA:1,2019-10-02T06:57:00Z,30.2583,-88.2131,1015.917,11111222 
DISL,ioos:station:DISL:KATA:1,2019-10-02T07:57:00Z,30.2583,-88.2131,1015.578361,11111222 
DISL,ioos:station:DISL:KATA:1,2019-10-02T08:57:00Z,30.2583,-88.2131,1015.239722,11111222 
DISL,ioos:station:DISL:KATA:1,2019-10-02T09:57:00Z,30.2583,-88.2131,1015.239722,11111222 
DISL,ioos:station:DISL:KATA:1,2019-10-02T10:57:00Z,30.2583,-88.2131,1015.578361,11111222 
DISL,ioos:station:DISL:KATA:1,2019-10-02T11:57:00Z,30.2583,-88.2131,1016.594278,11111222 
DISL,ioos:station:DISL:KATA:1,2019-10-02T12:57:00Z,30.2583,-88.2131,1017.271556,11111222 
DISL,ioos:station:DISL:KATA:1,2019-10-02T13:57:00Z,30.2583,-88.2131,1017.610195,11111222 
DISL,ioos:station:DISL:KATA:1,2019-10-02T14:57:00Z,30.2583,-88.2131,1017.271556,11111222 
DISL,ioos:station:DISL:KATA:1,2019-10-02T15:57:00Z,30.2583,-88.2131,1016.932917,11111222 
DISL,ioos:station:DISL:KATA:1,2019-10-02T16:57:00Z,30.2583,-88.2131,1016.932917,11111222 
DISL,ioos:station:DISL:KATA:1,2019-10-02T17:57:00Z,30.2583,-88.2131,1016.594278,11111222 
DISL,ioos:station:DISL:KATA:1,2019-10-02T18:57:00Z,30.2583,-88.2131,1015.578361,11111222 
DISL,ioos:station:DISL:KATA:1,2019-10-02T19:57:00Z,30.2583,-88.2131,1015.239722,11111222 
DISL,ioos:station:DISL:KATA:1,2019-10-02T20:57:00Z,30.2583,-88.2131,1014.901083,11111222 
DISL,ioos:station:DISL:KATA:1,2019-10-02T21:57:00Z,30.2583,-88.2131,1014.223805,11111222 
DISL,ioos:station:DISL:KATA:1,2019-10-02T22:57:00Z,30.2583,-88.2131,1014.223805,11111222 
DISL,ioos:station:DISL:KATA:1,2019-10-02T23:57:00Z,30.2583,-88.2131,1014.223805,11111222 
DISL,ioos:station:DISL:KATA:1,2019-10-03T00:57:00Z,30.2583,-88.2131,1014.223805,11111222 
DISL,ioos:station:DISL:KATA:1,2019-10-03T01:57:00Z,30.2583,-88.2131,1015.239722,11111222 
DISL,ioos:station:DISL:KATA:1,2019-10-03T02:57:00Z,30.2583,-88.2131,1015.239722,11111222 
DISL,ioos:station:DISL:KATA:1,2019-10-03T03:57:00Z,30.2583,-88.2131,1015.578361,11111222 
DISL,ioos:station:DISL:KATA:1,2019-10-03T04:57:00Z,30.2583,-88.2131,1015.578361,11111222 
DISL,ioos:station:DISL:KATA:1,2019-10-03T05:57:00Z,30.2583,-88.2131,1015.239722,11111222 
DISL,ioos:station:DISL:KATA:1,2019-10-03T06:57:00Z,30.2583,-88.2131,1015.578361,11111222 
DISL,ioos:station:DISL:KATA:1,2019-10-03T07:57:00Z,30.2583,-88.2131,1015.917,11111222 
DISL,ioos:station:DISL:KATA:1,2019-10-03T08:57:00Z,30.2583,-88.2131,1015.917,11111222 
DISL,ioos:station:DISL:KATA:1,2019-10-03T09:57:00Z,30.2583,-88.2131,1016.255639,11111222 
DISL,ioos:station:DISL:KATA:1,2019-10-03T10:57:00Z,30.2583,-88.2131,1016.255639,11111222 
DISL,ioos:station:DISL:KATA:1,2019-10-03T11:57:00Z,30.2583,-88.2131,1016.594278,11111222 
DISL,ioos:station:DISL:KATA:1,2019-10-03T12:57:00Z,30.2583,-88.2131,1017.271556,11111222 
DISL,ioos:station:DISL:KATA:1,2019-10-03T13:57:00Z,30.2583,-88.2131,1017.271556,11111222 
DISL,ioos:station:DISL:KATA:1,2019-10-03T14:57:00Z,30.2583,-88.2131,1017.610195,11111222 
DISL,ioos:station:DISL:KATA:1,2019-10-03T15:57:00Z,30.2583,-88.2131,1017.610195,11111222 
DISL,ioos:station:DISL:KATA:1,2019-10-03T16:57:00Z,30.2583,-88.2131,1017.271556,11111222 
DISL,ioos:station:DISL:KATA:1,2019-10-03T17:57:00Z,30.2583,-88.2131,1016.594278,11111222 
DISL,ioos:station:DISL:KATA:1,2019-10-03T18:57:00Z,30.2583,-88.2131,1016.255639,11111222 
DISL,ioos:station:DISL:KATA:1,2019-10-03T19:57:00Z,30.2583,-88.2131,1015.578361,11111222 
DISL,ioos:station:DISL:KATA:1,2019-10-03T20:57:00Z,30.2583,-88.2131,1015.239722,11111222 
DISL,ioos:station:DISL:KATA:1,2019-10-03T21:57:00Z,30.2583,-88.2131,1014.562444,11111222 
DISL,ioos:station:DISL:KATA:1,2019-10-03T22:57:00Z,30.2583,-88.2131,1014.901083,11111222 
DISL,ioos:station:DISL:KATA:1,2019-10-03T23:57:00Z,30.2583,-88.2131,1014.901083,11111222 
DISL,ioos:station:DISL:KATA:1,2019-10-04T00:57:00Z,30.2583,-88.2131,1015.578361,11111222 
DISL,ioos:station:DISL:KATA:1,2019-10-04T01:57:00Z,30.2583,-88.2131,1016.594278,11111222 
DISL,ioos:station:DISL:KATA:1,2019-10-04T02:57:00Z,30.2583,-88.2131,1016.594278,11111222 
DISL,ioos:station:DISL:KATA:1,2019-10-04T03:57:00Z,30.2583,-88.2131,1017.271556,11111222 
DISL,ioos:station:DISL:KATA:1,2019-10-04T04:57:00Z,30.2583,-88.2131,1016.932917,11111222 
DISL,ioos:station:DISL:KATA:1,2019-10-04T05:57:00Z,30.2583,-88.2131,1017.271556,11111222 
DISL,ioos:station:DISL:KATA:1,2019-10-04T06:57:00Z,30.2583,-88.2131,1017.271556,11111222 
DISL,ioos:station:DISL:KATA:1,2019-10-04T07:57:00Z,30.2583,-88.2131,1016.594278,11111222 
DISL,ioos:station:DISL:KATA:1,2019-10-04T08:57:00Z,30.2583,-88.2131,1016.594278,11111222 
DISL,ioos:station:DISL:KATA:1,2019-10-04T09:57:00Z,30.2583,-88.2131,1016.594278,11111222 
DISL,ioos:station:DISL:KATA:1,2019-10-04T10:56:00Z,30.2583,-88.2131,1016.932917,11111222 
DISL,ioos:station:DISL:KATA:1,2019-10-04T11:56:00Z,30.2583,-88.2131,1016.932917,11111222 
DISL,ioos:station:DISL:KATA:1,2019-10-04T12:56:00Z,30.2583,-88.2131,1016.932917,11111222 
DISL,ioos:station:DISL:KATA:1,2019-10-04T13:56:00Z,30.2583,-88.2131,1017.610195,11111222 
DISL,ioos:station:DISL:KATA:1,2019-10-04T14:56:00Z,30.2583,-88.2131,1017.271556,11111222 
DISL,ioos:station:DISL:KATA:1,2019-10-04T15:56:00Z,30.2583,-88.2131,1017.948834,11111222 
DISL,ioos:station:DISL:KATA:1,2019-10-04T16:56:00Z,30.2583,-88.2131,1017.271556,11111222 
DISL,ioos:station:DISL:KATA:1,2019-10-04T17:56:00Z,30.2583,-88.2131,1016.594278,11111222 
DISL,ioos:station:DISL:KATA:1,2019-10-04T18:56:00Z,30.2583,-88.2131,1015.578361,11111222 
DISL,ioos:station:DISL:KATA:1,2019-10-04T19:56:00Z,30.2583,-88.2131,1015.239722,11111222 
DISL,ioos:station:DISL:KATA:1,2019-10-04T20:56:00Z,30.2583,-88.2131,1014.223805,11111222 
DISL,ioos:station:DISL:KATA:1,2019-10-04T21:56:00Z,30.2583,-88.2131,1014.562444,11111222 
DISL,ioos:station:DISL:KATA:1,2019-10-04T22:56:00Z,30.2583,-88.2131,1014.562444,11111222 
DISL,ioos:station:DISL:KATA:1,2019-10-04T23:56:00Z,30.2583,-88.2131,1014.562444,11111222 
DISL,ioos:station:DISL:KATA:1,2019-10-05T00:56:00Z,30.2583,-88.2131,1015.239722,11111222 
DISL,ioos:station:DISL:KATA:1,2019-10-05T01:56:00Z,30.2583,-88.2131,1016.255639,11111222 
DISL,ioos:station:DISL:KATA:1,2019-10-05T02:56:00Z,30.2583,-88.2131,1016.594278,11111222 
DISL,ioos:station:DISL:KATA:1,2019-10-05T03:56:00Z,30.2583,-88.2131,1015.917,11111222 
DISL,ioos:station:DISL:KATA:1,2019-10-05T04:56:00Z,30.2583,-88.2131,1015.578361,11111222 
DISL,ioos:station:DISL:KATA:1,2019-10-05T05:56:00Z,30.2583,-88.2131,1015.578361,11111222 
DISL,ioos:station:DISL:KATA:1,2019-10-05T06:56:00Z,30.2583,-88.2131,1015.239722,11111222 
DISL,ioos:station:DISL:KATA:1,2019-10-05T07:56:00Z,30.2583,-88.2131,1015.239722,11111222 
DISL,ioos:station:DISL:KATA:1,2019-10-05T08:56:00Z,30.2583,-88.2131,1014.901083,11111222 
DISL,ioos:station:DISL:KATA:1,2019-10-05T09:56:00Z,30.2583,-88.2131,1014.223805,11111222 
DISL,ioos:station:DISL:KATA:1,2019-10-05T10:56:00Z,30.2583,-88.2131,1014.901083,11111222 
DISL,ioos:station:DISL:KATA:1,2019-10-05T11:56:00Z,30.2583,-88.2131,1015.239722,11111222 
DISL,ioos:station:DISL:KATA:1,2019-10-05T12:56:00Z,30.2583,-88.2131,1015.917,11111222 
DISL,ioos:station:DISL:KATA:1,2019-10-05T13:56:00Z,30.2583,-88.2131,1016.255639,11111222 
DISL,ioos:station:DISL:KATA:1,2019-10-05T14:56:00Z,30.2583,-88.2131,1016.594278,11111222 
DISL,ioos:station:DISL:KATA:1,2019-10-05T15:56:00Z,30.2583,-88.2131,1016.932917,11111222 
DISL,ioos:station:DISL:KATA:1,2019-10-05T16:56:00Z,30.2583,-88.2131,1016.255639,11111222 
DISL,ioos:station:DISL:KATA:1,2019-10-05T17:56:00Z,30.2583,-88.2131,1015.578361,11111222 
DISL,ioos:station:DISL:KATA:1,2019-10-05T18:56:00Z,30.2583,-88.2131,1015.239722,11111222 
DISL,ioos:station:DISL:KATA:1,2019-10-05T19:56:00Z,30.2583,-88.2131,1014.562444,11111222 
DISL,ioos:station:DISL:KATA:1,2019-10-05T20:56:00Z,30.2583,-88.2131,1014.223805,11111222 
DISL,ioos:station:DISL:KATA:1,2019-10-05T21:56:00Z,30.2583,-88.2131,1014.223805,11111222 
DISL,ioos:station:DISL:KATA:1,2019-10-05T22:56:00Z,30.2583,-88.2131,1014.223805,11111222 
DISL,ioos:station:DISL:KATA:1,2019-10-05T23:56:00Z,30.2583,-88.2131,1014.901083,11111222 
DISL,ioos:station:DISL:KATA:1,2019-10-06T00:56:00Z,30.2583,-88.2131,1015.239722,11111222 
DISL,ioos:station:DISL:KATA:1,2019-10-06T01:56:00Z,30.2583,-88.2131,1015.917,11111222 
DISL,ioos:station:DISL:KATA:1,2019-10-06T02:56:00Z,30.2583,-88.2131,1016.594278,11111222 
DISL,ioos:station:DISL:KATA:1,2019-10-06T03:56:00Z,30.2583,-88.2131,1015.917,11111222 
DISL,ioos:station:DISL:KATA:1,2019-10-06T04:56:00Z,30.2583,-88.2131,1015.917,11111222 
DISL,ioos:station:DISL:KATA:1,2019-10-06T05:56:00Z,30.2583,-88.2131,1015.578361,11111222 
DISL,ioos:station:DISL:KATA:1,2019-10-06T06:56:00Z,30.2583,-88.2131,1015.239722,11111222 
DISL,ioos:station:DISL:KATA:1,2019-10-06T07:56:00Z,30.2583,-88.2131,1014.901083,11111222 
DISL,ioos:station:DISL:KATA:1,2019-10-06T08:56:00Z,30.2583,-88.2131,1015.239722,11111222 
DISL,ioos:station:DISL:KATA:1,2019-10-06T09:56:00Z,30.2583,-88.2131,1015.917,11111222 
DISL,ioos:station:DISL:KATA:1,2019-10-06T10:56:00Z,30.2583,-88.2131,1016.255639,11111222 
DISL,ioos:station:DISL:KATA:1,2019-10-06T11:56:00Z,30.2583,-88.2131,1016.594278,11111222 
DISL,ioos:station:DISL:KATA:1,2019-10-06T12:56:00Z,30.2583,-88.2131,1016.932917,11111222 
DISL,ioos:station:DISL:KATA:1,2019-10-06T13:56:00Z,30.2583,-88.2131,1017.271556,11111222 
DISL,ioos:station:DISL:KATA:1,2019-10-06T14:56:00Z,30.2583,-88.2131,1017.948834,11111222 
DISL,ioos:station:DISL:KATA:1,2019-10-06T15:56:00Z,30.2583,-88.2131,1018.287473,11111222 
DISL,ioos:station:DISL:KATA:1,2019-10-06T16:56:00Z,30.2583,-88.2131,1018.964751,11111222 
DISL,ioos:station:DISL:KATA:1,2019-10-06T17:56:00Z,30.2583,-88.2131,1018.287473,11111222 
DISL,ioos:station:DISL:KATA:1,2019-10-06T18:56:00Z,30.2583,-88.2131,1017.271556,11111222 
DISL,ioos:station:DISL:KATA:1,2019-10-06T19:56:00Z,30.2583,-88.2131,1016.594278,11111222 
DISL,ioos:station:DISL:KATA:1,2019-10-06T20:56:00Z,30.2583,-88.2131,1016.594278,11111222 
DISL,ioos:station:DISL:KATA:1,2019-10-06T21:56:00Z,30.2583,-88.2131,1016.594278,11111222 
DISL,ioos:station:DISL:KATA:1,2019-10-06T22:56:00Z,30.2583,-88.2131,1015.917,11111222 
DISL,ioos:station:DISL:KATA:1,2019-10-06T23:56:00Z,30.2583,-88.2131,1015.917,11111222 
DISL,ioos:station:DISL:KATA:1,2019-10-07T00:56:00Z,30.2583,-88.2131,1015.578361,11111222 
DISL,ioos:station:DISL:KATA:1,2019-10-07T01:56:00Z,30.2583,-88.2131,1016.594278,11111222 
DISL,ioos:station:DISL:KATA:1,2019-10-07T02:56:00Z,30.2583,-88.2131,1016.932917,11111222 
DISL,ioos:station:DISL:KATA:1,2019-10-07T03:56:00Z,30.2583,-88.2131,1016.594278,11111222 
DISL,ioos:station:DISL:KATA:1,2019-10-07T04:56:00Z,30.2583,-88.2131,1016.594278,11111222 
DISL,ioos:station:DISL:KATA:1,2019-10-07T05:56:00Z,30.2583,-88.2131,1016.255639,11111222 
DISL,ioos:station:DISL:KATA:1,2019-10-07T06:56:00Z,30.2583,-88.2131,1015.917,11111222 
DISL,ioos:station:DISL:KATA:1,2019-10-07T07:56:00Z,30.2583,-88.2131,1015.917,11111222 
DISL,ioos:station:DISL:KATA:1,2019-10-07T08:56:00Z,30.2583,-88.2131,1015.578361,11111222 
DISL,ioos:station:DISL:KATA:1,2019-10-07T09:56:00Z,30.2583,-88.2131,1015.239722,11111222 
DISL,ioos:station:DISL:KATA:1,2019-10-07T10:56:00Z,30.2583,-88.2131,1015.578361,11111222 
DISL,ioos:station:DISL:KATA:1,2019-10-07T11:56:00Z,30.2583,-88.2131,1015.578361,11111222 
DISL,ioos:station:DISL:KATA:1,2019-10-07T12:56:00Z,30.2583,-88.2131,1015.917,11111222 
DISL,ioos:station:DISL:KATA:1,2019-10-07T18:56:00Z,30.2583,-88.2131,1014.223805,11111222 
DISL,ioos:station:DISL:KATA:1,2019-10-07T19:56:00Z,30.2583,-88.2131,1013.546527,11111222 
DISL,ioos:station:DISL:KATA:1,2019-10-07T20:56:00Z,30.2583,-88.2131,1013.207888,11111222 
DISL,ioos:station:DISL:KATA:1,2019-10-07T21:56:00Z,30.2583,-88.2131,1013.546527,11111222 
DISL,ioos:station:DISL:KATA:1,2019-10-07T22:56:00Z,30.2583,-88.2131,1013.885166,11111222 
DISL,ioos:station:DISL:KATA:1,2019-10-07T23:56:00Z,30.2583,-88.2131,1013.546527,11111222 
DISL,ioos:station:DISL:KATA:1,2019-10-08T00:56:00Z,30.2583,-88.2131,1014.223805,11111222 
DISL,ioos:station:DISL:KATA:1,2019-10-08T01:56:00Z,30.2583,-88.2131,1015.239722,11111222 
DISL,ioos:station:DISL:KATA:1,2019-10-08T02:56:00Z,30.2583,-88.2131,1015.578361,11111222 
DISL,ioos:station:DISL:KATA:1,2019-10-08T03:56:00Z,30.2583,-88.2131,1015.239722,11111222 
DISL,ioos:station:DISL:KATA:1,2019-10-08T04:56:00Z,30.2583,-88.2131,1014.901083,11111222 
DISL,ioos:station:DISL:KATA:1,2019-10-08T05:56:00Z,30.2583,-88.2131,1014.901083,11111222 
DISL,ioos:station:DISL:KATA:1,2019-10-08T06:56:00Z,30.2583,-88.2131,1014.562444,11111222 
DISL,ioos:station:DISL:KATA:1,2019-10-08T07:56:00Z,30.2583,-88.2131,1014.223805,11111222 
DISL,ioos:station:DISL:KATA:1,2019-10-08T08:56:00Z,30.2583,-88.2131,1014.223805,11111222 
DISL,ioos:station:DISL:KATA:1,2019-10-08T09:56:00Z,30.2583,-88.2131,1014.901083,11111222 
DISL,ioos:station:DISL:KATA:1,2019-10-08T10:56:00Z,30.2583,-88.2131,1014.901083,11111222 
DISL,ioos:station:DISL:KATA:1,2019-10-08T11:56:00Z,30.2583,-88.2131,1014.901083,11111222 
DISL,ioos:station:DISL:KATA:1,2019-10-08T12:56:00Z,30.2583,-88.2131,1015.578361,11111222 
DISL,ioos:station:DISL:KATA:1,2019-10-08T13:56:00Z,30.2583,-88.2131,1016.255639,11111222 
DISL,ioos:station:DISL:KATA:1,2019-10-08T14:56:00Z,30.2583,-88.2131,1016.594278,11111222 
DISL,ioos:station:DISL:KATA:1,2019-10-08T15:56:00Z,30.2583,-88.2131,1016.594278,11111222 
DISL,ioos:station:DISL:KATA:1,2019-10-08T16:56:00Z,30.2583,-88.2131,1016.255639,11111222 
DISL,ioos:station:DISL:KATA:1,2019-10-08T17:56:00Z,30.2583,-88.2131,1015.917,11111222 
DISL,ioos:station:DISL:KATA:1,2019-10-08T19:26:00Z,30.2583,-88.2131,1015.239722,11111222 
DISL,ioos:station:DISL:KATA:1,2019-10-08T19:56:00Z,30.2583,-88.2131,1014.562444,11111222 
DISL,ioos:station:DISL:KATA:1,2019-10-08T20:56:00Z,30.2583,-88.2131,1014.223805,11111222 
DISL,ioos:station:DISL:KATA:1,2019-10-08T21:56:00Z,30.2583,-88.2131,1013.885166,11111222 
DISL,ioos:station:DISL:KATA:1,2019-10-08T22:56:00Z,30.2583,-88.2131,1013.885166,11111222 
DISL,ioos:station:DISL:KATA:1,2019-10-08T23:56:00Z,30.2583,-88.2131,1014.901083,11111222 
DISL,ioos:station:DISL:KATA:1,2019-10-09T00:56:00Z,30.2583,-88.2131,1015.239722,11111222 
DISL,ioos:station:DISL:KATA:1,2019-10-09T01:56:00Z,30.2583,-88.2131,1015.578361,11111222 
DISL,ioos:station:DISL:KATA:1,2019-10-09T02:56:00Z,30.2583,-88.2131,1015.917,11111222 
DISL,ioos:station:DISL:KATA:1,2019-10-09T03:56:00Z,30.2583,-88.2131,1015.917,11111222 
DISL,ioos:station:DISL:KATA:1,2019-10-09T04:56:00Z,30.2583,-88.2131,1015.578361,11111222 
DISL,ioos:station:DISL:KATA:1,2019-10-09T05:56:00Z,30.2583,-88.2131,1014.901083,11111222 
DISL,ioos:station:DISL:KATA:1,2019-10-09T06:56:00Z,30.2583,-88.2131,1015.578361,11111222 
DISL,ioos:station:DISL:KATA:1,2019-10-09T07:56:00Z,30.2583,-88.2131,1014.901083,11111222 
DISL,ioos:station:DISL:KATA:1,2019-10-09T08:56:00Z,30.2583,-88.2131,1014.901083,11111222 
DISL,ioos:station:DISL:KATA:1,2019-10-09T09:56:00Z,30.2583,-88.2131,1014.901083,11111222 
DISL,ioos:station:DISL:KATA:1,2019-10-09T10:56:00Z,30.2583,-88.2131,1015.239722,11111222 
DISL,ioos:station:DISL:KATA:1,2019-10-09T11:56:00Z,30.2583,-88.2131,1015.239722,11111222 
DISL,ioos:station:DISL:KATA:1,2019-10-09T12:56:00Z,30.2583,-88.2131,1015.917,11111222 
DISL,ioos:station:DISL:KATA:1,2019-10-09T13:56:00Z,30.2583,-88.2131,1016.932917,11111222 
DISL,ioos:station:DISL:KATA:1,2019-10-09T14:56:00Z,30.2583,-88.2131,1017.271556,11111222 
DISL,ioos:station:DISL:KATA:1,2019-10-09T15:56:00Z,30.2583,-88.2131,1017.271556,11111222 
DISL,ioos:station:DISL:KATA:1,2019-10-09T16:56:00Z,30.2583,-88.2131,1017.271556,11111222 
DISL,ioos:station:DISL:KATA:1,2019-10-09T17:56:00Z,30.2583,-88.2131,1015.917,11111222 
DISL,ioos:station:DISL:KATA:1,2019-10-09T18:56:00Z,30.2583,-88.2131,1014.901083,11111222 
DISL,ioos:station:DISL:KATA:1,2019-10-09T19:56:00Z,30.2583,-88.2131,1014.901083,11111222 
DISL,ioos:station:DISL:KATA:1,2019-10-09T20:56:00Z,30.2583,-88.2131,1014.562444,11111222 
DISL,ioos:station:DISL:KATA:1,2019-10-09T21:56:00Z,30.2583,-88.2131,1014.562444,11111222 
DISL,ioos:station:DISL:KATA:1,2019-10-09T22:56:00Z,30.2583,-88.2131,1014.562444,11111222 
DISL,ioos:station:DISL:KATA:1,2019-10-09T23:56:00Z,30.2583,-88.2131,1014.901083,11111222 
DISL,ioos:station:DISL:KATA:1,2019-10-10T02:56:00Z,30.2583,-88.2131,1015.917,11111222 
DISL,ioos:station:DISL:KATA:1,2019-10-10T03:56:00Z,30.2583,-88.2131,1015.917,11111222 
DISL,ioos:station:DISL:KATA:1,2019-10-10T04:56:00Z,30.2583,-88.2131,1015.578361,11111222 
DISL,ioos:station:DISL:KATA:1,2019-10-10T05:56:00Z,30.2583,-88.2131,1015.578361,11111222 
DISL,ioos:station:DISL:KATA:1,2019-10-10T06:56:00Z,30.2583,-88.2131,1015.917,11111222 
DISL,ioos:station:DISL:KATA:1,2019-10-10T07:56:00Z,30.2583,-88.2131,1015.917,11111222 
DISL,ioos:station:DISL:KATA:1,2019-10-10T08:56:00Z,30.2583,-88.2131,1015.578361,11111222 
DISL,ioos:station:DISL:KATA:1,2019-10-10T09:56:00Z,30.2583,-88.2131,1015.578361,11111222 
DISL,ioos:station:DISL:KATA:1,2019-10-10T10:56:00Z,30.2583,-88.2131,1015.917,11111222 
DISL,ioos:station:DISL:KATA:1,2019-10-10T11:56:00Z,30.2583,-88.2131,1016.255639,11111222 
DISL,ioos:station:DISL:KATA:1,2019-10-10T12:56:00Z,30.2583,-88.2131,1016.594278,11111222 
DISL,ioos:station:DISL:KATA:1,2019-10-10T13:56:00Z,30.2583,-88.2131,1017.271556,11111222 
DISL,ioos:station:DISL:KATA:1,2019-10-10T14:56:00Z,30.2583,-88.2131,1017.948834,11111222 
DISL,ioos:station:DISL:KATA:1,2019-10-10T15:56:00Z,30.2583,-88.2131,1017.948834,11111222 
DISL,ioos:station:DISL:KATA:1,2019-10-10T16:56:00Z,30.2583,-88.2131,1017.610195,11111222 
DISL,ioos:station:DISL:KATA:1,2019-10-10T17:56:00Z,30.2583,-88.2131,1017.271556,11111222 
DISL,ioos:station:DISL:KATA:1,2019-10-10T18:56:00Z,30.2583,-88.2131,1015.917,11111222 
DISL,ioos:station:DISL:KATA:1,2019-10-10T19:56:00Z,30.2583,-88.2131,1015.917,11111222 
DISL,ioos:station:DISL:KATA:1,2019-10-10T20:56:00Z,30.2583,-88.2131,1015.578361,11111222 
DISL,ioos:station:DISL:KATA:1,2019-10-10T21:56:00Z,30.2583,-88.2131,1015.239722,11111222 
DISL,ioos:station:DISL:KATA:1,2019-10-10T22:56:00Z,30.2583,-88.2131,1014.901083,11111222 
DISL,ioos:station:DISL:KATA:1,2019-10-10T23:56:00Z,30.2583,-88.2131,1014.562444,11111222 
DISL,ioos:station:DISL:KATA:1,2019-10-11T00:56:00Z,30.2583,-88.2131,1014.901083,11111222 
DISL,ioos:station:DISL:KATA:1,2019-10-11T01:56:00Z,30.2583,-88.2131,1015.917,11111222 
DISL,ioos:station:DISL:KATA:1,2019-10-11T02:56:00Z,30.2583,-88.2131,1016.255639,11111222 
DISL,ioos:station:DISL:KATA:1,2019-10-11T03:56:00Z,30.2583,-88.2131,1016.255639,11111222 
DISL,ioos:station:DISL:KATA:1,2019-10-11T04:56:00Z,30.2583,-88.2131,1016.255639,11111222 
DISL,ioos:station:DISL:KATA:1,2019-10-11T05:56:00Z,30.2583,-88.2131,1015.578361,11111222 
DISL,ioos:station:DISL:KATA:1,2019-10-11T06:56:00Z,30.2583,-88.2131,1015.239722,11111222 
DISL,ioos:station:DISL:KATA:1,2019-10-11T07:56:00Z,30.2583,-88.2131,1014.562444,11111222 
DISL,ioos:station:DISL:KATA:1,2019-10-11T08:56:00Z,30.2583,-88.2131,1014.901083,11111222 
DISL,ioos:station:DISL:KATA:1,2019-10-11T09:56:00Z,30.2583,-88.2131,1015.239722,11111222 
DISL,ioos:station:DISL:KATA:1,2019-10-11T10:56:00Z,30.2583,-88.2131,1015.917,11111222 
DISL,ioos:station:DISL:KATA:1,2019-10-11T11:56:00Z,30.2583,-88.2131,1016.255639,11111222 
DISL,ioos:station:DISL:KATA:1,2019-10-11T12:56:00Z,30.2583,-88.2131,1016.255639,11111222 
DISL,ioos:station:DISL:KATA:1,2019-10-11T13:56:00Z,30.2583,-88.2131,1016.932917,11111222 
DISL,ioos:station:DISL:KATA:1,2019-10-11T14:56:00Z,30.2583,-88.2131,1017.271556,11111222 
DISL,ioos:station:DISL:KATA:1,2019-10-11T15:56:00Z,30.2583,-88.2131,1016.932917,11111222 
DISL,ioos:station:DISL:KATA:1,2019-10-11T16:56:00Z,30.2583,-88.2131,1016.932917,11111222 
DISL,ioos:station:DISL:KATA:1,2019-10-11T17:56:00Z,30.2583,-88.2131,1016.255639,11111222 
DISL,ioos:station:DISL:KATA:1,2019-10-11T18:56:00Z,30.2583,-88.2131,1015.578361,11111222 
DISL,ioos:station:DISL:KATA:1,2019-10-11T19:56:00Z,30.2583,-88.2131,1014.901083,11111222 
DISL,ioos:station:DISL:KATA:1,2019-10-11T20:56:00Z,30.2583,-88.2131,1014.901083,11111222 
DISL,ioos:station:DISL:KATA:1,2019-10-11T21:56:00Z,30.2583,-88.2131,1015.239722,11111222 
DISL,ioos:station:DISL:KATA:1,2019-10-11T22:56:00Z,30.2583,-88.2131,1015.578361,11111222 
DISL,ioos:station:DISL:KATA:1,2019-10-11T23:56:00Z,30.2583,-88.2131,1015.239722,11111222 
DISL,ioos:station:DISL:KATA:1,2019-10-12T00:56:00Z,30.2583,-88.2131,1016.255639,11111222 
DISL,ioos:station:DISL:KATA:1,2019-10-12T01:56:00Z,30.2583,-88.2131,1016.255639,11111222 
DISL,ioos:station:DISL:KATA:1,2019-10-12T02:56:00Z,30.2583,-88.2131,1016.932917,11111222 
DISL,ioos:station:DISL:KATA:1,2019-10-12T15:56:00Z,30.2583,-88.2131,1018.964751,11111222 
DISL,ioos:station:DISL:KATA:1,2019-10-12T16:56:00Z,30.2583,-88.2131,1017.948834,11111222 
DISL,ioos:station:DISL:KATA:1,2019-10-12T17:56:00Z,30.2583,-88.2131,1016.932917,11111222 
DISL,ioos:station:DISL:KATA:1,2019-10-12T18:56:00Z,30.2583,-88.2131,1016.932917,11111222 
DISL,ioos:station:DISL:KATA:1,2019-10-12T19:56:00Z,30.2583,-88.2131,1016.594278,11111222 
DISL,ioos:station:DISL:KATA:1,2019-10-12T20:56:00Z,30.2583,-88.2131,1016.594278,11111222 
DISL,ioos:station:DISL:KATA:1,2019-10-12T21:56:00Z,30.2583,-88.2131,1016.932917,11111222 
DISL,ioos:station:DISL:KATA:1,2019-10-12T22:56:00Z,30.2583,-88.2131,1016.594278,11111222 